Regional Weather Roundup
Issued by NWS

Home | Current Version | Previous Version | Text Only | Print | Product List | Glossary On
Versions: 1 2 3 4 5 6 7 8 9 10 11 12 13 14 15 16 17 18 19 20 21 22 23 24 25 26 27 28 29 30 31 32 33 34 35 36 37 38 39 40 41 42 43 44 45 46 47 48 49
000
ASUS43 KDMX 210407
RWRIA

WEATHER ROUNDUP FOR IOWA
NATIONAL WEATHER SERVICE DES MOINES IA
1100 PM CDT WED AUG 20 2014

NOTE: "FAIR" INDICATES FEW OR NO CLOUDS BELOW 12,000 FEET WITH NO
SIGNIFICANT WEATHER AND/OR OBSTRUCTIONS TO VISIBILITY.

* - THESE STATIONS ARE NOT NWS STATIONS...THUS NOT UNDER NWS
QUALITY CONTROL.  THEY ALSO DO NOT REPORT WEATHER SUCH
AS PRECIPITATION OR FOG.

IAZ001>003-012>014-020>022-031>034-043>046-210500-
   NORTHWEST IOWA

CITY           SKY/WX    TMP DP  RH WIND       PRES   REMARKS
CARROLL *      CLEAR     72  72 100 SE3       29.83R
CHEROKEE *     PTCLDY    70  70 100 NE3       29.81S
DENISON *      CLEAR     79  75  89 SE12G20   29.79S HX  82
LE MARS *      CLEAR     77  75  94 SE8       29.77F
ORANGE CITY *  CLEAR     75  72  88 SE5       29.79F
SHELDON *      CLEAR     72  72 100 SE9       29.79S
SIOUX CITY     PTCLDY    78  74  87 SE9       29.76S HX  81
SPENCER        MOCLDY    72  69  90 SE9       29.82F
STORM LAKE *   CLEAR     72  72 100 SE6       29.83F
$$

IAZ055>058-069>071-079>083-090>094-210500-
   SOUTHWEST IOWA

CITY           SKY/WX    TMP DP  RH WIND       PRES   REMARKS
ATLANTIC *     CLEAR     79  75  89 VRB3      29.82R HX  82
AUDUBON *      CLEAR     79  75  89 S3        29.84S HX  82
CLARINDA *     CLEAR     81  75  83 S7        29.84R HX  86
COUNCIL BLFS * CLEAR     79  75  89 SE10      29.79S HX  82
CRESTON *      CLEAR     77  75  94 S10       29.86R
HARLAN  *      CLEAR     77  75  94 SE7       29.85S
LAMONI         CLEAR     79  73  82 S10       29.87R HX  82
RED OAK *      CLEAR     79  75  89 S9        29.82R HX  82
SHENANDOAH *   CLEAR     79  75  89 SE10      29.82R HX  82
$$

IAZ047>049-059>061-072>074-084-210500-
   CENTRAL IOWA

CITY           SKY/WX    TMP DP  RH WIND       PRES   REMARKS
AMES           CLEAR     72  71  97 SE5       29.85S
ANKENY *       CLEAR     73  72  94 SE3       29.85S
CHARITON *     CLEAR     77  73  88 S8        29.87R
DES MOINES     MOCLDY    78  73  84 E5        29.84R HX  81
GRINNELL*      CLEAR     73  70  88 SE8       29.88S
KNOXVILLE *    CLEAR     75  73  94 SE5       29.85R
MARSHALLTOWN   CLEAR     69  68  96 SE6       29.87R
PELLA *        CLEAR     75  73  94 SE6       29.88R
PERRY *          N/A     72  72 100 E5        29.84S
$$

IAZ004>006-015-016-023>025-035-036-210500-
   NORTH CENTRAL IOWA

CITY           SKY/WX    TMP DP  RH WIND       PRES   REMARKS
ALGONA *       CLEAR     72  70  94 SE8       29.85S
CLARION *      CLEAR     70  70 100 SE9       29.86S
ESTHERVILLE    CLOUDY    69  68  96 SE7       29.83
FORT DODGE *   CLEAR     70  70 100 SE7       29.85S
MASON CITY     MOCLDY    69  68  96 SE5       29.90R
FOREST CITY *  PTCLDY    70  70 100 SE9       29.87F
IOWA FALLS *     N/A     68  66  94 SE5       29.88F
$$

IAZ007>011-017>019-026>030-037>042-050>054-066-210500-
   NORTHEAST IOWA

CITY           SKY/WX    TMP DP  RH WIND       PRES   REMARKS
CEDAR RAPIDS   CLEAR     68  68 100 E5        29.90R
CHARLES CITY * PTCLDY    70  66  88 SE8       29.90R
CLINTON *      PTCLDY    70  64  83 SE6       29.96R
DECORAH *      CLOUDY    68  68 100 VRB6      29.90S
DUBUQUE        PTCLDY    68  66  93 E5        29.94R
MONTICELLO *   CLEAR     68  68 100 CALM      29.91R
OELWEIN *      MOCLDY    70  68  94 SE7       29.92R
WATERLOO       MOCLDY    68  66  93 SE7       29.88R
$$

IAZ064-065-067-068-078-210500-
   EAST CENTRAL IOWA

CITY           SKY/WX    TMP DP  RH WIND       PRES   REMARKS
DAVENPORT      CLEAR     70  67  90 SE6       29.93R
IOWA CITY      CLEAR     69  69 100 SE3       29.91R
MT. PLEASANT * CLEAR     72  70  94 NE6       29.90S FOG
MUSCATINE *    CLEAR     70  70 100 CALM      29.90S
QUAD CITIES    CLEAR     70  67  90 E6        29.92R
$$

IAZ062-063-075>077-085>089-095>099-210500-
   SOUTHEAST IOWA

CITY           SKY/WX    TMP DP  RH WIND       PRES   REMARKS
BURLINGTON     LGT RAIN  77  75  93 S8        29.90S
FAIRFIELD *    CLEAR     73  72  94 E7        29.89S FOG
FORT MADISON * CLEAR     79  77  94 S6        29.91S HX  83
KEOKUK *       CLEAR     77  77 100 SE5       29.89S
OSKALOOSA *      N/A     73  72  94 E7        29.88S
CENTERVILLE *  CLEAR     75  75 100 SE6       29.90R
OTTUMWA        CLEAR     75  73  93 SE5       29.88R
WASHINGTON *   CLEAR     72  72 100 SE6       29.90S
$$

ABBREVIATIONS USED IN REMARKS
   TC - TEMPERATURES IN CELSIUS
  WCI - WIND CHILL INDEX
   HX - HEAT INDEX
  VSB - VISIBILITY
$$



USA.gov is the U.S. government's official web portal to all federal, state and local government web resources and services.